Temperature
3 4 4 3 4 4 4 4 5 6 7 7 8 8 7 7 7 6 6 6 6 6 6 6 7 7 8 8 9 10 10 11 11 12 12 12 12 12 12 12 12 12 12 12
3 4 4 3 4 4 5 5 5 5 6 7 7 7 7 6 6 6 6 5 5 5 5 5 6 7 7 8 8 9 10 10 11 11 11 12 12 12 12 12 12 12 12 11
3 4 3 3 4 5 5 5 5 5 6 7 6 6 6 6 5 5 5 5 4 4 5 5 5 6 6 7 8 8 9 10 10 11 11 11 12 12 12 12 12 12 11 11
2 2 2 5 5 5 5 5 5 5 5 6 6 5 5 5 4 4 4 4 4 4 4 4 5 5 6 7 7 8 9 9 10 10 11 11 11 11 11 11 11 11 11 11
2 2 3 5 5 4 4 4 5 5 5 5 5 5 5 4 4 3 3 3 3 3 3 4 4 5 6 6 7 7 8 9 9 9 10 10 11 11 11 11 11 11 11 11
1 1 2 5 4 4 4 4 4 4 4 4 4 4 5 4 3 3 3 3 3 3 3 3 4 5 5 6 6 7 7 8 8 9 9 10 10 10 11 11 11 10 10 10
1 1 3 4 4 3 3 4 4 4 4 4 4 4 3 3 3 3 3 3 2 2 3 3 4 4 5 5 5 6 7 7 8 8 9 9 10 10 10 10 10 10 10 10
1 1 2 4 3 3 4 4 3 3 3 3 3 2 2 2 2 2 2 2 2 2 2 3 3 4 4 4 5 6 6 7 7 8 8 9 9 9 9 9 9 9 9 9
2 3 4 3 3 3 3 3 2 2 2 2 2 2 2 1 1 1 2 2 2 2 2 2 3 3 4 4 5 5 6 6 7 7 7 8 8 8 8 8 8 8 8 9
1 3 3 2 2 2 2 2 2 1 1 1 1 1 1 1 1 1 1 1 1 1 1 2 2 3 3 4 4 5 5 6 6 6 7 7 7 8 8 8 8 8 8 8
1 3 3 2 2 2 1 1 1 1 0 0 0 0 0 0 0 0 0 0 1 1 1 1 2 2 3 3 4 4 5 5 5 6 6 6 6 7 7 7 8 8 8 8
2 3 2 3 2 1 1 0 0 0 0 0 -0 -0 -0 -0 -0 -0 -0 0 0 0 1 1 1 2 2 3 3 3 4 4 5 5 5 5 6 6 6 6 7 7 7 8
2 2 1 1 1 0 -0 -0 -0 -1 -1 -1 -1 -1 -1 -1 -1 -1 -1 -0 -0 0 0 1 1 1 2 2 3 3 3 4 4 4 5 5 5 5 5 6 6 6 6 7
0 0 -0 -0 -0 -1 -1 -1 -1 -1 -1 -1 -1 -1 -1 -1 -1 -1 -1 -1 -0 0 0 0 1 1 1 1 2 2 3 3 3 4 4 4 5 5 5 5 5 5 5 6
-1 -1 -1 -1 -1 -2 -2 -2 -2 -2 -2 -2 -2 -2 -2 -2 -2 -1 -1 -1 -1 -0 -0 0 0 1 1 1 1 1 2 2 3 3 3 4 4 4 4 4 4 4 5 5
-2 -2 -2 -2 -2 -2 -3 -3 -3 -3 -3 -3 -2 -2 -2 -2 -2 -2 -2 -1 -1 -1 -1 -0 -0 0 0 1 1 1 1 2 2 3 3 3 3 3 4 4 4 4 4 4
-2 -2 -3 -3 -3 -3 -3 -3 -3 -3 -3 -3 -3 -3 -3 -3 -2 -2 -2 -2 -2 -2 -1 -1 -1 -0 0 0 0 0 1 1 2 2 2 3 3 3 3 3 3 3 3 3
-3 -3 -3 -3 -3 -4 -4 -3 -4 -4 -4 -4 -4 -3 -3 -3 -3 -3 -2 -2 -2 -2 -2 -1 -1 -1 -1 -0 -0 -0 0 1 1 2 2 2 2 2 3 3 3 3 3 2
-3 -3 -4 -4 -4 -4 -4 -4 -4 -4 -4 -4 -4 -4 -4 -4 -3 -3 -3 -3 -3 -2 -2 -1 -1 -1 -1 -1 -1 -1 -0 0 1 1 1 2 2 2 2 2 2 2 2 2
-4 -4 -4 -4 -4 -5 -5 -5 -5 -5 -5 -5 -5 -5 -5 -4 -4 -4 -4 -3 -3 -3 -2 -2 -2 -2 -2 -1 -1 -1 -0 -0 0 1 1 1 1 1 2 2 2 2 2 2
-4 -5 -5 -5 -5 -5 -5 -5 -5 -5 -5 -5 -5 -5 -5 -5 -4 -4 -4 -4 -3 -3 -3 -3 -3 -2 -2 -2 -1 -1 -1 -1 -0 0 0 0 1 1 1 1 1 2 1 1
-5 -5 -5 -5 -5 -5 -5 -6 -6 -6 -6 -6 -6 -6 -5 -5 -5 -5 -5 -4 -4 -4 -4 -3 -3 -2 -2 -2 -2 -1 -1 -1 -1 -0 -0 -0 0 0 0 1 1 1 1 1
-6 -6 -6 -6 -6 -6 -6 -6 -6 -6 -6 -6 -6 -6 -6 -6 -6 -6 -5 -5 -5 -4 -4 -4 -3 -3 -2 -2 -2 -2 -1 -1 -1 -1 -1 -1 -0 -0 -0 0 0 0 0 0
-6 -6 -6 -6 -7 -7 -7 -7 -7 -7 -7 -7 -6 -6 -6 -6 -6 -6 -6 -5 -5 -5 -4 -4 -3 -3 -3 -3 -2 -2 -2 -2 -2 -2 -1 -1 -1 -1 -1 -0 -0 -0 0 0
-7 -7 -7 -7 -7 -7 -8 -8 -7 -7 -7 -7 -7 -7 -7 -7 -7 -6 -6 -6 -5 -5 -5 -4 -4 -3 -3 -3 -3 -3 -2 -2 -2 -2 -2 -1 -1 -1 -1 -1 -1 -0 -0 -0
-7 -7 -8 -8 -8 -8 -8 -8 -8 -8 -8 -8 -7 -7 -7 -7 -7 -6 -6 -6 -6 -5 -5 -5 -4 -4 -4 -3 -3 -3 -3 -2 -2 -2 -2 -2 -2 -2 -1 -1 -1 -1 -1 -0
-8 -8 -8 -8 -8 -8 -9 -9 -9 -9 -9 -9 -8 -8 -8 -7 -7 -7 -6 -6 -6 -5 -5 -5 -4 -4 -4 -3 -3 -3 -3 -3 -3 -2 -2 -2 -2 -2 -1 -1 -1 -1 -1 -1
Wind_Speed
15 15 13 15 16 15 16 16 15 18 19 18 16 14 13 11 11 11 10 10 10 9 9 9 8 7 6 6 5 5 8 9 11 12 14 14 15 16 16 17 17 16 16 15
13 14 15 18 20 20 20 20 20 20 21 18 16 13 12 11 11 10 10 10 10 10 9 9 8 8 7 6 6 5 6 8 9 10 11 12 13 13 14 15 15 16 16 15
10 11 11 14 16 17 16 15 15 18 17 14 13 12 11 11 11 10 10 10 10 9 9 9 8 8 8 7 6 5 6 7 7 8 9 11 11 12 13 14 15 15 15 15
7 7 11 8 4 8 12 13 13 13 13 12 12 11 10 9 10 10 10 9 9 9 9 9 9 8 8 7 6 6 6 6 6 7 8 9 11 12 12 12 13 14 14 15
5 9 13 11 8 7 9 11 11 12 12 11 11 10 9 7 8 9 10 9 9 9 9 8 8 8 8 7 7 6 6 6 6 7 8 9 10 12 11 11 12 12 13 13
7 8 9 7 2 3 5 8 6 8 9 8 7 8 8 8 9 10 10 9 9 9 9 8 8 7 7 7 7 7 6 6 6 7 8 9 10 10 10 11 11 11 11 12
13 11 10 8 3 4 6 5 2 5 7 7 8 9 10 10 10 10 10 10 9 9 8 8 8 7 7 7 8 8 7 7 6 7 8 9 9 9 9 9 10 10 10 10
9 10 11 4 5 7 7 4 5 7 8 9 11 11 11 11 10 10 10 10 9 9 9 8 8 7 8 8 8 7 7 7 7 7 6 6 8 8 9 10 11 10 9 9
10 10 7 6 9 8 8 9 9 9 10 10 12 12 12 11 11 10 10 10 9 9 9 9 8 7 8 9 8 7 7 7 6 6 6 7 8 8 8 9 9 9 9 8
11 14 14 12 12 12 12 12 12 11 11 11 13 13 12 11 11 10 10 9 9 9 9 9 9 8 8 8 8 7 7 6 5 5 6 6 6 7 7 8 9 9 9 9
15 16 15 14 14 14 14 13 13 13 12 12 13 13 13 11 11 10 10 9 8 9 10 10 10 10 9 7 6 7 6 6 5 4 5 6 5 6 7 7 8 9 9 9
13 13 12 13 13 13 13 14 13 13 13 13 12 13 13 12 11 10 10 9 9 9 10 10 10 10 9 7 6 6 5 4 4 4 4 4 4 3 3 5 6 7 7 8
18 17 16 17 16 14 13 14 14 13 13 13 13 12 12 11 10 10 10 10 10 10 10 10 10 9 8 7 6 6 5 5 4 4 4 4 4 5 4 3 6 7 9 9
16 15 15 15 14 14 13 13 12 12 12 11 11 10 10 10 10 11 11 10 10 10 10 10 9 9 8 7 6 6 5 4 4 4 4 4 5 5 5 6 5 4 6 10
13 13 13 13 13 12 10 10 10 11 10 10 9 9 9 10 10 10 10 10 10 10 10 9 9 9 7 6 6 6 5 4 3 3 3 4 4 5 5 5 5 5 5 7
10 11 12 12 13 12 10 10 10 11 10 10 9 9 9 9 10 10 10 9 9 10 9 8 9 8 7 6 6 5 4 5 4 4 4 4 5 5 5 6 6 6 6 7
9 10 10 11 12 11 11 10 10 10 10 10 10 10 9 9 9 9 9 9 9 9 9 9 9 8 7 6 6 4 4 4 5 4 4 5 5 5 6 6 6 6 5 7
10 10 10 10 10 10 10 9 9 9 9 10 10 9 9 9 10 10 9 8 8 9 9 8 7 7 7 6 5 4 4 4 4 4 4 4 5 5 6 6 6 7 6 6
7 8 8 8 8 8 8 8 8 8 9 8 9 9 9 9 9 9 9 8 9 9 8 6 7 7 7 6 6 4 4 4 3 3 4 5 5 5 6 6 6 6 6 6
4 5 5 6 6 6 7 7 8 8 8 8 8 9 9 9 9 8 8 8 8 7 7 6 6 6 6 6 5 4 4 4 4 4 4 5 5 6 6 6 6 6 6 6
4 4 4 5 6 6 7 7 7 8 8 8 8 9 9 10 9 8 7 8 8 7 7 7 6 5 5 5 5 4 4 4 4 4 4 5 5 6 6 6 6 6 6 6
4 4 4 5 5 6 7 6 7 8 8 8 8 8 9 9 8 8 8 7 7 7 6 5 5 6 6 5 4 4 4 4 4 4 4 5 5 6 6 6 6 6 6 6
4 4 5 5 6 7 8 7 7 7 8 8 8 8 9 8 7 7 7 6 5 7 6 5 6 7 6 4 3 4 4 4 4 4 5 5 5 6 6 6 6 6 6 6
5 5 5 6 6 6 7 8 7 6 7 8 8 8 8 7 7 6 6 7 7 8 5 5 5 5 5 3 4 4 4 5 5 5 5 5 5 6 6 6 6 6 6 7
5 5 5 5 6 6 7 7 7 7 7 6 7 8 7 6 7 6 6 5 6 6 4 4 4 4 4 3 4 4 4 5 5 5 5 6 6 6 6 6 6 6 6 7
5 5 6 6 6 6 5 5 5 6 6 6 6 6 6 5 6 5 4 4 4 4 4 3 3 3 3 3 4 4 4 5 5 5 5 6 6 6 6 7 7 7 7 7
5 5 5 5 5 5 5 5 6 6 6 6 7 7 6 5 4 4 4 3 3 2 2 2 2 2 2 2 3 3 4 4 4 5 5 6 6 6 7 7 6 6 7 7
Wind_Direction
261 270 268 264 263 256 245 247 255 265 269 276 285 292 296 301 308 312 321 327 331 328 326 325 324 313 303 296 288 267 237 226 224 219 213 211 210 207 204 202 200 198 199 201
267 266 265 266 263 258 252 251 254 262 267 275 282 285 287 295 303 307 314 320 323 323 320 321 321 319 309 300 294 279 251 233 228 221 213 209 208 206 202 201 198 195 196 198
272 279 279 264 256 248 245 244 249 255 264 281 282 281 284 291 298 301 308 315 319 319 317 314 314 313 307 298 290 275 259 243 234 223 214 210 206 203 200 199 195 196 196 196
272 273 251 261 266 251 251 254 251 254 268 278 282 283 284 292 297 301 307 310 312 314 314 312 308 308 305 298 287 274 261 252 240 225 216 210 205 203 201 198 196 195 196 196
246 260 271 272 257 241 244 259 251 253 264 275 283 283 279 292 301 301 303 305 307 310 310 309 308 307 302 294 286 276 261 255 244 228 217 209 205 204 201 196 195 195 194 193
235 250 260 272 244 226 243 261 246 247 260 276 285 276 286 309 309 305 303 304 306 308 309 309 311 311 300 290 283 279 275 265 250 230 218 211 207 204 199 196 194 190 191 191
236 246 261 269 231 184 227 262 227 241 258 272 272 273 293 301 302 304 303 304 307 305 305 307 310 312 302 291 283 283 284 276 255 232 222 214 207 202 196 192 189 187 184 187
222 235 251 215 179 215 253 281 257 262 270 276 280 283 288 294 298 303 303 304 307 305 305 308 308 308 304 296 293 289 282 273 252 233 221 212 202 198 192 186 185 184 179 179
220 236 258 219 223 246 267 269 270 271 276 278 281 281 285 288 293 297 299 299 302 302 302 305 307 304 300 301 302 294 282 269 253 235 217 206 199 193 187 185 184 181 180 180
248 253 257 258 258 264 265 266 271 274 278 278 278 279 282 285 287 290 293 296 299 299 300 303 306 302 297 300 301 290 278 266 247 226 212 203 196 191 188 188 184 180 181 179
249 260 269 261 259 265 270 270 272 275 275 275 277 276 278 282 282 283 286 290 292 291 294 298 302 300 299 301 299 289 278 263 244 223 210 204 197 195 195 198 191 185 185 179
249 256 258 269 272 272 269 268 270 273 275 274 271 273 274 275 276 277 279 284 287 286 288 292 296 296 297 299 293 286 278 267 243 218 206 198 188 177 166 179 167 171 173 172
254 267 268 274 278 275 270 272 273 271 272 273 273 270 270 271 272 273 274 277 281 283 283 286 289 289 293 296 288 276 269 267 255 221 201 191 187 179 165 125 130 146 153 157
253 262 267 268 271 274 273 273 274 274 272 271 271 269 267 268 269 269 270 273 277 279 279 278 280 283 288 292 285 277 272 266 255 228 204 191 186 181 172 167 161 152 146 149
248 249 257 269 274 273 273 272 272 272 273 275 272 267 264 264 267 270 273 275 277 275 273 272 276 280 287 287 278 274 269 260 248 223 205 189 179 173 167 164 162 156 148 146
253 256 257 263 269 273 272 269 268 272 275 276 276 270 268 268 270 273 274 272 271 269 270 271 272 277 281 277 272 268 263 262 245 216 197 184 176 172 168 164 160 161 163 159
251 256 259 264 269 273 272 269 268 271 274 276 279 279 277 275 273 272 274 274 268 268 267 265 268 274 272 264 261 260 259 255 234 211 196 184 176 172 170 167 165 165 167 167
249 256 259 260 266 270 273 273 271 271 273 278 282 279 275 272 272 274 277 278 275 272 265 260 261 265 265 261 257 255 252 244 225 211 195 182 173 169 167 165 162 158 155 154
257 262 265 264 265 267 272 275 276 277 279 280 278 275 273 273 274 277 279 275 271 269 268 264 260 259 260 255 253 253 245 230 217 202 192 177 171 169 167 164 161 158 157 158
268 268 268 271 273 272 274 278 281 280 280 279 276 275 275 275 275 276 276 270 264 264 270 268 264 259 256 250 246 239 227 218 208 193 188 182 174 169 165 162 160 158 160 162
275 275 276 280 284 283 281 281 280 281 284 281 274 273 276 278 278 274 270 272 272 271 271 266 259 255 252 243 235 225 216 209 203 193 188 182 172 167 164 162 162 160 161 159
277 277 281 285 288 292 294 290 284 284 285 283 280 278 277 277 278 274 264 263 272 275 274 266 258 251 249 246 225 217 212 204 198 191 187 182 174 169 168 166 164 163 162 160
277 278 284 288 291 295 298 295 290 287 283 283 281 280 279 277 276 272 276 273 273 272 270 265 259 250 248 238 220 212 208 201 195 191 187 182 177 172 169 167 167 165 163 159
283 287 290 293 294 292 293 296 295 291 287 286 282 280 279 280 280 272 268 277 280 278 272 265 259 251 244 229 217 211 204 197 193 189 182 177 174 170 168 166 165 163 161 159
282 285 286 288 288 286 289 294 296 294 291 288 287 284 279 273 273 278 278 275 276 276 273 269 263 251 237 221 209 204 202 197 190 183 178 174 172 169 167 165 164 163 163 163
280 283 284 283 282 284 286 287 289 291 292 293 293 292 289 285 280 278 279 279 276 275 273 266 254 244 224 207 198 195 191 184 182 180 174 170 168 167 165 164 162 165 166 163
283 286 288 290 289 286 284 283 284 286 286 286 289 290 291 289 283 280 279 277 276 276 271 265 255 231 202 183 177 178 179 177 174 169 167 167 168 166 164 163 164 165 164 162
Height
1436 1433 1434 1433 1430 1428 1428 1423 1418 1406 1402 1398 1399 1399 1399 1398 1397 1395 1392 1390 1388 1386 1384 1382 1381 1380 1380 1380 1380 1381 1383 1385 1387 1391 1395 1399 1403 1407 1412 1416 1420 1424 1429 1433
1433 1429 1428 1426 1420 1417 1415 1413 1410 1406 1401 1399 1399 1398 1397 1396 1394 1392 1390 1388 1386 1384 1382 1380 1378 1377 1376 1376 1376 1377 1378 1380 1382 1386 1389 1393 1397 1401 1405 1409 1413 1418 1422 1426
1427 1424 1425 1417 1408 1406 1405 1403 1403 1400 1396 1395 1395 1395 1394 1394 1392 1390 1388 1386 1384 1382 1380 1378 1376 1375 1374 1374 1373 1374 1374 1376 1378 1380 1383 1386 1391 1395 1399 1402 1406 1410 1415 1419
1429 1427 1423 1402 1401 1401 1400 1399 1399 1397 1395 1394 1394 1392 1392 1391 1390 1387 1386 1384 1382 1380 1377 1376 1374 1372 1371 1370 1370 1370 1370 1372 1373 1375 1378 1381 1385 1388 1392 1396 1400 1404 1408 1413
1427 1419 1405 1398 1398 1399 1399 1395 1393 1393 1392 1392 1391 1389 1388 1387 1387 1385 1383 1381 1379 1377 1375 1373 1371 1369 1368 1367 1366 1366 1366 1367 1368 1370 1373 1376 1379 1383 1387 1391 1394 1398 1403 1407
1424 1419 1405 1391 1395 1396 1398 1391 1389 1389 1389 1389 1388 1386 1383 1384 1383 1382 1380 1378 1376 1374 1372 1370 1368 1366 1364 1363 1362 1362 1362 1363 1365 1366 1369 1371 1374 1377 1381 1385 1389 1393 1397 1401
1419 1412 1396 1391 1394 1396 1396 1386 1387 1387 1387 1387 1386 1385 1383 1381 1380 1378 1376 1374 1372 1370 1368 1366 1364 1363 1361 1360 1359 1359 1359 1359 1361 1362 1364 1367 1370 1373 1376 1380 1384 1388 1392 1396
1411 1407 1396 1389 1392 1391 1385 1385 1385 1385 1384 1383 1382 1381 1380 1378 1376 1374 1372 1370 1368 1366 1364 1363 1361 1359 1357 1356 1355 1355 1355 1355 1357 1358 1360 1363 1365 1368 1372 1375 1379 1383 1387 1391
1396 1389 1384 1385 1385 1384 1384 1383 1382 1382 1381 1380 1378 1376 1375 1374 1372 1370 1369 1367 1365 1363 1361 1359 1358 1356 1354 1352 1351 1351 1351 1351 1352 1354 1356 1358 1361 1363 1366 1370 1373 1377 1381 1385
1389 1382 1381 1382 1381 1381 1380 1379 1378 1378 1376 1375 1373 1372 1370 1369 1368 1366 1364 1363 1361 1359 1357 1355 1354 1353 1351 1349 1348 1347 1347 1347 1349 1350 1351 1354 1356 1359 1361 1364 1368 1372 1376 1380
1381 1377 1377 1375 1375 1375 1374 1374 1373 1372 1371 1369 1368 1367 1366 1364 1362 1361 1359 1358 1357 1355 1353 1351 1350 1348 1347 1346 1344 1344 1343 1344 1345 1346 1348 1349 1352 1354 1357 1360 1363 1367 1371 1374
1371 1370 1371 1368 1369 1369 1369 1367 1367 1366 1364 1363 1363 1361 1360 1358 1357 1356 1354 1353 1352 1350 1349 1347 1345 1344 1343 1342 1341 1340 1340 1340 1342 1343 1344 1346 1348 1351 1354 1357 1361 1364 1368 1371
1366 1365 1366 1364 1364 1363 1363 1361 1361 1360 1358 1357 1356 1355 1354 1352 1351 1350 1349 1348 1346 1345 1344 1342 1341 1340 1339 1338 1337 1337 1336 1337 1338 1339 1340 1342 1345 1347 1350 1354 1357 1361 1364 1368
1360 1361 1359 1358 1358 1357 1356 1355 1354 1353 1352 1351 1349 1348 1347 1346 1345 1344 1343 1342 1341 1340 1338 1337 1336 1335 1334 1334 1333 1332 1332 1333 1334 1336 1337 1339 1342 1344 1347 1350 1353 1357 1362 1365
1354 1355 1354 1352 1352 1351 1350 1349 1347 1346 1345 1344 1343 1342 1341 1340 1339 1338 1337 1336 1335 1334 1333 1332 1331 1330 1330 1330 1329 1329 1329 1330 1331 1333 1334 1336 1339 1342 1344 1347 1350 1354 1358 1362
1348 1348 1348 1347 1346 1345 1344 1343 1341 1340 1339 1338 1337 1336 1335 1334 1333 1332 1331 1330 1329 1328 1327 1327 1326 1326 1326 1326 1325 1325 1325 1326 1327 1329 1331 1333 1336 1338 1341 1344 1347 1350 1354 1358
1343 1342 1341 1341 1340 1339 1338 1337 1336 1334 1333 1332 1331 1330 1329 1328 1326 1325 1324 1324 1323 1322 1322 1322 1321 1321 1321 1321 1321 1321 1321 1322 1324 1325 1327 1330 1332 1335 1338 1341 1344 1348 1351 1355
1337 1336 1336 1335 1335 1334 1332 1331 1330 1329 1328 1327 1326 1324 1323 1322 1320 1319 1318 1318 1317 1316 1316 1316 1316 1316 1316 1317 1317 1317 1318 1318 1320 1322 1324 1326 1328 1331 1335 1338 1341 1345 1348 1353
1331 1331 1331 1330 1329 1329 1327 1326 1325 1324 1323 1321 1320 1319 1317 1316 1315 1314 1313 1312 1311 1310 1310 1311 1312 1312 1312 1312 1313 1313 1314 1315 1316 1318 1321 1323 1325 1328 1331 1335 1338 1342 1345 1350
1327 1326 1326 1325 1324 1324 1322 1321 1320 1318 1317 1316 1314 1313 1311 1310 1309 1308 1307 1306 1305 1305 1305 1306 1306 1307 1307 1308 1309 1309 1310 1311 1313 1315 1317 1320 1322 1325 1328 1332 1335 1339 1343 1347
1323 1322 1321 1321 1320 1319 1318 1316 1315 1313 1312 1310 1309 1307 1306 1305 1304 1303 1301 1300 1299 1300 1300 1300 1301 1301 1302 1303 1304 1305 1307 1308 1310 1312 1315 1317 1319 1322 1326 1329 1333 1336 1340 1344
1320 1319 1318 1317 1316 1314 1313 1312 1310 1309 1307 1305 1303 1302 1300 1299 1298 1297 1296 1295 1295 1295 1295 1295 1295 1296 1298 1299 1300 1301 1303 1305 1307 1309 1312 1314 1317 1319 1323 1326 1329 1333 1337 1341
1317 1316 1315 1313 1312 1310 1309 1307 1306 1304 1302 1300 1298 1296 1295 1294 1293 1292 1290 1290 1290 1290 1289 1289 1290 1291 1293 1295 1296 1297 1299 1301 1304 1306 1309 1311 1314 1316 1319 1323 1327 1330 1334 1338
1314 1313 1312 1310 1308 1306 1304 1302 1301 1299 1297 1295 1293 1292 1290 1289 1287 1287 1286 1285 1285 1285 1285 1285 1286 1288 1289 1291 1293 1294 1296 1298 1301 1303 1306 1309 1311 1314 1317 1320 1324 1328 1332 1335
1311 1309 1308 1306 1304 1302 1300 1298 1296 1294 1292 1290 1288 1287 1286 1285 1283 1282 1282 1281 1281 1281 1281 1282 1283 1285 1286 1288 1290 1291 1293 1295 1298 1300 1303 1305 1308 1311 1314 1317 1321 1325 1329 1333
1307 1305 1304 1302 1300 1298 1296 1294 1292 1290 1288 1286 1284 1283 1282 1281 1280 1279 1278 1278 1278 1278 1279 1279 1280 1282 1283 1285 1287 1288 1290 1293 1295 1297 1300 1303 1306 1309 1312 1315 1319 1323 1327 1331
1303 1301 1300 1298 1296 1294 1293 1291 1288 1287 1285 1283 1281 1280 1279 1277 1277 1276 1276 1276 1276 1276 1276 1277 1278 1279 1280 1282 1284 1286 1288 1290 1292 1295 1298 1301 1304 1306 1310 1313 1317 1321 1325 1329